;"Summenlastgang 
aller Einspeisungen MS
+ Vorgelagertes Netz (eigenes und EWE)
+ dezentrale Erzeugung
- R�ckspeisung in UHM"
Arbeit;287.538.292
H�chstleistung;54.103
Ab Zeit;20.01.2022 18:15
01.01.2022 00:00;28.981
01.01.2022 00:15;25.575
01.01.2022 00:30;26.152
01.01.2022 00:45;27.539
01.01.2022 01:00;25.769
01.01.2022 01:15;25.821
01.01.2022 01:30;25.865
01.01.2022 01:45;24.267
01.01.2022 02:00;24.277
01.01.2022 02:15;23.920
01.01.2022 02:30;24.250
01.01.2022 02:45;23.053
01.01.2022 03:00;23.890
01.01.2022 03:15;23.100
01.01.2022 03:30;21.783
01.01.2022 03:45;23.118
01.01.2022 04:00;22.071
01.01.2022 04:15;22.250
01.01.2022 04:30;22.494
01.01.2022 04:45;22.325
01.01.2022 05:00;22.492
01.01.2022 05:15;21.530
01.01.2022 05:30;18.840
01.01.2022 05:45;24.143
01.01.2022 06:00;22.600
01.01.2022 06:15;22.665
01.01.2022 06:30;22.022
01.01.2022 06:45;24.767
01.01.2022 07:00;24.446
01.01.2022 07:15;25.304
01.01.2022 07:30;24.212
01.01.2022 07:45;24.100
01.01.2022 08:00;25.781
01.01.2022 08:15;25.883
01.01.2022 08:30;25.196
01.01.2022 08:45;25.931
01.01.2022 09:00;28.331
01.01.2022 09:15;28.133
01.01.2022 09:30;28.015
01.01.2022 09:45;30.059
01.01.2022 10:00;31.656
01.01.2022 10:15;31.059
01.01.2022 10:30;31.925
01.01.2022 10:45;32.648
01.01.2022 11:00;34.358
01.01.2022 11:15;35.841
01.01.2022 11:30;36.127
01.01.2022 11:45;35.997
01.01.2022 12:00;36.625
01.01.2022 12:15;37.144
01.01.2022 12:30;37.361
01.01.2022 12:45;36.479
01.01.2022 13:00;36.800
01.01.2022 13:15;35.754
01.01.2022 13:30;36.501
01.01.2022 13:45;35.378
01.01.2022 14:00;34.765
01.01.2022 14:15;36.229
01.01.2022 14:30;35.948
01.01.2022 14:45;35.938
01.01.2022 15:00;35.908
01.01.2022 15:15;35.811
01.01.2022 15:30;35.304
01.01.2022 15:45;36.942
01.01.2022 16:00;37.852
01.01.2022 16:15;38.121
01.01.2022 16:30;39.001
01.01.2022 16:45;39.806
01.01.2022 17:00;41.146
01.01.2022 17:15;41.069
01.01.2022 17:30;40.666
01.01.2022 17:45;41.489
01.01.2022 18:00;41.317
01.01.2022 18:15;41.106
01.01.2022 18:30;40.746
01.01.2022 18:45;40.723
01.01.2022 19:00;40.045
01.01.2022 19:15;39.331
01.01.2022 19:30;39.406
01.01.2022 19:45;38.690
01.01.2022 20:00;39.021
01.01.2022 20:15;37.693
01.01.2022 20:30;36.649
01.01.2022 20:45;35.660
01.01.2022 21:00;35.038
01.01.2022 21:15;35.538
01.01.2022 21:30;33.685
01.01.2022 21:45;32.681
01.01.2022 22:00;32.689
01.01.2022 22:15;31.302
01.01.2022 22:30;30.060
01.01.2022 22:45;30.368
01.01.2022 23:00;29.772
01.01.2022 23:15;29.451
01.01.2022 23:30;27.449
01.01.2022 23:45;26.410
02.01.2022 00:00;26.398
02.01.2022 00:15;25.820
02.01.2022 00:30;25.509
02.01.2022 00:45;24.818
02.01.2022 01:00;23.699
02.01.2022 01:15;23.630
02.01.2022 01:30;22.616
02.01.2022 01:45;22.725
02.01.2022 02:00;22.328
02.01.2022 02:15;22.388
02.01.2022 02:30;21.515
02.01.2022 02:45;21.851
02.01.2022 03:00;20.267
02.01.2022 03:15;21.262
02.01.2022 03:30;21.606
02.01.2022 03:45;20.785
02.01.2022 04:00;20.507
02.01.2022 04:15;21.429
02.01.2022 04:30;21.078
02.01.2022 04:45;20.662
02.01.2022 05:00;21.340
02.01.2022 05:15;20.336
02.01.2022 05:30;21.098
02.01.2022 05:45;21.750
02.01.2022 06:00;22.279
02.01.2022 06:15;22.217
02.01.2022 06:30;22.073
02.01.2022 06:45;23.491
02.01.2022 07:00;23.766
02.01.2022 07:15;24.561
02.01.2022 07:30;23.898
02.01.2022 07:45;27.509
02.01.2022 08:00;26.662
02.01.2022 08:15;29.357
02.01.2022 08:30;29.213
02.01.2022 08:45;29.255
02.01.2022 09:00;31.645
02.01.2022 09:15;31.537
02.01.2022 09:30;31.595
02.01.2022 09:45;33.579
02.01.2022 10:00;34.319
02.01.2022 10:15;35.245
02.01.2022 10:30;35.406
02.01.2022 10:45;37.161
02.01.2022 11:00;41.161
02.01.2022 11:15;39.632
02.01.2022 11:30;40.414
02.01.2022 11:45;41.591
02.01.2022 12:00;42.382
02.01.2022 12:15;42.336
02.01.2022 12:30;41.683
02.01.2022 12:45;42.014
02.01.2022 13:00;40.830
02.01.2022 13:15;41.136
02.01.2022 13:30;40.489
02.01.2022 13:45;39.507
02.01.2022 14:00;40.143
02.01.2022 14:15;40.539
02.01.2022 14:30;40.092
02.01.2022 14:45;39.793
02.01.2022 15:00;39.350
02.01.2022 15:15;39.173
02.01.2022 15:30;39.319
02.01.2022 15:45;39.166
02.01.2022 16:00;39.076
02.01.2022 16:15;40.243
02.01.2022 16:30;40.557
02.01.2022 16:45;41.338
02.01.2022 17:00;42.307
02.01.2022 17:15;42.540
02.01.2022 17:30;43.837
02.01.2022 17:45;43.318
02.01.2022 18:00;42.719
02.01.2022 18:15;42.878
02.01.2022 18:30;42.886
02.01.2022 18:45;42.253
02.01.2022 19:00;40.926
02.01.2022 19:15;40.499
02.01.2022 19:30;40.209
02.01.2022 19:45;37.989
02.01.2022 20:00;37.852
02.01.2022 20:15;38.493
02.01.2022 20:30;37.406
02.01.2022 20:45;36.254
02.01.2022 21:00;34.624
02.01.2022 21:15;33.891
02.01.2022 21:30;33.750
02.01.2022 21:45;33.150
02.01.2022 22:00;31.983
02.01.2022 22:15;30.991
02.01.2022 22:30;31.113
02.01.2022 22:45;29.827
02.01.2022 23:00;28.643
02.01.2022 23:15;28.186
02.01.2022 23:30;27.710
02.01.2022 23:45;25.566
03.01.2022 00:00;25.782
03.01.2022 00:15;24.866
03.01.2022 00:30;24.458
03.01.2022 00:45;24.119
03.01.2022 01:00;23.279
03.01.2022 01:15;23.434
03.01.2022 01:30;23.379
03.01.2022 01:45;22.819
03.01.2022 02:00;22.585
03.01.2022 02:15;22.528
03.01.2022 02:30;22.426
03.01.2022 02:45;22.063
03.01.2022 03:00;21.820
03.01.2022 03:15;21.862
03.01.2022 03:30;21.865
03.01.2022 03:45;22.375
03.01.2022 04:00;22.321
03.01.2022 04:15;22.729
03.01.2022 04:30;22.554
03.01.2022 04:45;22.741
03.01.2022 05:00;24.379
03.01.2022 05:15;24.889
03.01.2022 05:30;27.009
03.01.2022 05:45;27.227
03.01.2022 06:00;26.286
03.01.2022 06:15;31.506
03.01.2022 06:30;29.987
03.01.2022 06:45;31.633
03.01.2022 07:00;36.191
03.01.2022 07:15;34.731
03.01.2022 07:30;37.339
03.01.2022 07:45;38.799
03.01.2022 08:00;40.411
03.01.2022 08:15;41.802
03.01.2022 08:30;41.648
03.01.2022 08:45;43.169
03.01.2022 09:00;42.463
03.01.2022 09:15;45.292
03.01.2022 09:30;44.356
03.01.2022 09:45;43.775
03.01.2022 10:00;46.232
03.01.2022 10:15;47.060
03.01.2022 10:30;46.565
03.01.2022 10:45;46.073
03.01.2022 11:00;46.738
03.01.2022 11:15;47.202
03.01.2022 11:30;47.127
03.01.2022 11:45;47.667
03.01.2022 12:00;47.920
03.01.2022 12:15;47.580
03.01.2022 12:30;47.956
03.01.2022 12:45;46.505
03.01.2022 13:00;49.374
03.01.2022 13:15;48.267
03.01.2022 13:30;47.951
03.01.2022 13:45;47.934
03.01.2022 14:00;47.613
03.01.2022 14:15;46.355
03.01.2022 14:30;46.968
03.01.2022 14:45;47.705
03.01.2022 15:00;46.763
03.01.2022 15:15;47.164
03.01.2022 15:30;48.547
03.01.2022 15:45;46.997
03.01.2022 16:00;45.307
03.01.2022 16:15;47.207
03.01.2022 16:30;49.238
03.01.2022 16:45;48.694
03.01.2022 17:00;48.294
03.01.2022 17:15;50.835
03.01.2022 17:30;50.049
03.01.2022 17:45;50.048
03.01.2022 18:00;49.091
03.01.2022 18:15;48.709
03.01.2022 18:30;48.656
03.01.2022 18:45;47.675
03.01.2022 19:00;46.111
03.01.2022 19:15;45.723
03.01.2022 19:30;44.689
03.01.2022 19:45;43.604
03.01.2022 20:00;42.437
03.01.2022 20:15;41.424
03.01.2022 20:30;40.075
03.01.2022 20:45;39.738
03.01.2022 21:00;38.359
03.01.2022 21:15;37.092
03.01.2022 21:30;36.510
03.01.2022 21:45;35.385
03.01.2022 22:00;33.735
03.01.2022 22:15;32.824
03.01.2022 22:30;31.881
03.01.2022 22:45;30.517
03.01.2022 23:00;29.398
03.01.2022 23:15;27.941
03.01.2022 23:30;29.176
03.01.2022 23:45;26.939
04.01.2022 00:00;26.529
04.01.2022 00:15;25.719
04.01.2022 00:30;24.465
04.01.2022 00:45;24.614
04.01.2022 01:00;24.539
04.01.2022 01:15;24.470
04.01.2022 01:30;23.437
04.01.2022 01:45;23.264
04.01.2022 02:00;22.467
04.01.2022 02:15;21.615
04.01.2022 02:30;22.427
04.01.2022 02:45;21.333
04.01.2022 03:00;22.058
04.01.2022 03:15;22.601
04.01.2022 03:30;21.315
04.01.2022 03:45;21.879
04.01.2022 04:00;22.313
04.01.2022 04:15;22.414
04.01.2022 04:30;22.223
04.01.2022 04:45;23.570
04.01.2022 05:00;25.025
04.01.2022 05:15;24.104
04.01.2022 05:30;27.227
04.01.2022 05:45;28.104
04.01.2022 06:00;29.362
04.01.2022 06:15;29.651
04.01.2022 06:30;31.531
04.01.2022 06:45;31.214
04.01.2022 07:00;34.560
04.01.2022 07:15;35.149
04.01.2022 07:30;36.805
04.01.2022 07:45;40.160
04.01.2022 08:00;40.315
04.01.2022 08:15;42.124
04.01.2022 08:30;41.959
04.01.2022 08:45;42.703
04.01.2022 09:00;42.422
04.01.2022 09:15;43.726
04.01.2022 09:30;44.856
04.01.2022 09:45;45.052
04.01.2022 10:00;45.574
04.01.2022 10:15;46.095
04.01.2022 10:30;46.378
04.01.2022 10:45;47.196
04.01.2022 11:00;46.250
04.01.2022 11:15;48.146
04.01.2022 11:30;50.155
04.01.2022 11:45;48.380
04.01.2022 12:00;49.070
04.01.2022 12:15;49.309
04.01.2022 12:30;48.333
04.01.2022 12:45;48.020
04.01.2022 13:00;49.254
04.01.2022 13:15;47.161
04.01.2022 13:30;49.960
04.01.2022 13:45;47.991
04.01.2022 14:00;47.544
04.01.2022 14:15;46.706
04.01.2022 14:30;45.985
04.01.2022 14:45;45.371
04.01.2022 15:00;46.031
04.01.2022 15:15;45.820
04.01.2022 15:30;46.259
04.01.2022 15:45;46.265
04.01.2022 16:00;46.826
04.01.2022 16:15;47.007
04.01.2022 16:30;46.922
04.01.2022 16:45;48.105
04.01.2022 17:00;49.646
04.01.2022 17:15;49.735
04.01.2022 17:30;49.555
04.01.2022 17:45;51.566
04.01.2022 18:00;49.459
04.01.2022 18:15;49.439
04.01.2022 18:30;48.452
04.01.2022 18:45;48.120
04.01.2022 19:00;46.661
04.01.2022 19:15;45.552
04.01.2022 19:30;46.219
04.01.2022 19:45;44.020
04.01.2022 20:00;43.300
04.01.2022 20:15;41.929
04.01.2022 20:30;40.859
04.01.2022 20:45;40.487
04.01.2022 21:00;39.475
04.01.2022 21:15;37.655
04.01.2022 21:30;36.624
04.01.2022 21:45;34.182
04.01.2022 22:00;34.204
04.01.2022 22:15;32.547
04.01.2022 22:30;32.719
04.01.2022 22:45;31.774
04.01.2022 23:00;29.349
04.01.2022 23:15;28.620
04.01.2022 23:30;28.871
04.01.2022 23:45;28.235
05.01.2022 00:00;28.304
05.01.2022 00:15;25.718
05.01.2022 00:30;24.689
05.01.2022 00:45;24.119
05.01.2022 01:00;25.283
05.01.2022 01:15;25.614
05.01.2022 01:30;23.749
05.01.2022 01:45;24.363
05.01.2022 02:00;22.816
05.01.2022 02:15;23.490
05.01.2022 02:30;21.925
05.01.2022 02:45;22.469
05.01.2022 03:00;22.040
05.01.2022 03:15;22.003
05.01.2022 03:30;22.987
05.01.2022 03:45;22.854
05.01.2022 04:00;23.112
05.01.2022 04:15;23.940
05.01.2022 04:30;24.085
05.01.2022 04:45;24.658
05.01.2022 05:00;25.904
05.01.2022 05:15;26.094
05.01.2022 05:30;27.389
05.01.2022 05:45;29.656
05.01.2022 06:00;29.728
05.01.2022 06:15;31.724
05.01.2022 06:30;31.969
05.01.2022 06:45;33.647
05.01.2022 07:00;36.293
05.01.2022 07:15;37.251
05.01.2022 07:30;38.991
05.01.2022 07:45;39.644
05.01.2022 08:00;42.250
05.01.2022 08:15;44.684
05.01.2022 08:30;44.465
05.01.2022 08:45;43.608
05.01.2022 09:00;43.131
05.01.2022 09:15;43.931
05.01.2022 09:30;45.571
05.01.2022 09:45;46.485
05.01.2022 10:00;46.381
05.01.2022 10:15;46.078
05.01.2022 10:30;47.268
05.01.2022 10:45;47.648
05.01.2022 11:00;49.673
05.01.2022 11:15;50.603
05.01.2022 11:30;48.970
05.01.2022 11:45;47.244
05.01.2022 12:00;48.888
05.01.2022 12:15;50.713
05.01.2022 12:30;52.718
05.01.2022 12:45;49.250
05.01.2022 13:00;46.550
05.01.2022 13:15;45.742
05.01.2022 13:30;49.266
05.01.2022 13:45;48.789
05.01.2022 14:00;47.764
05.01.2022 14:15;46.754
05.01.2022 14:30;46.868
05.01.2022 14:45;46.996
05.01.2022 15:00;47.063
05.01.2022 15:15;49.753
05.01.2022 15:30;48.329
05.01.2022 15:45;46.863
05.01.2022 16:00;47.900
05.01.2022 16:15;48.032
05.01.2022 16:30;48.665
05.01.2022 16:45;49.780
05.01.2022 17:00;50.787
05.01.2022 17:15;50.362
05.01.2022 17:30;50.977
05.01.2022 17:45;50.481
05.01.2022 18:00;50.279
05.01.2022 18:15;49.726
05.01.2022 18:30;49.458
05.01.2022 18:45;47.972
05.01.2022 19:00;48.363
05.01.2022 19:15;46.556
05.01.2022 19:30;45.696
05.01.2022 19:45;43.694
05.01.2022 20:00;43.763
05.01.2022 20:15;42.280
05.01.2022 20:30;41.778
05.01.2022 20:45;40.420
05.01.2022 21:00;41.940
05.01.2022 21:15;37.467
05.01.2022 21:30;37.519
05.01.2022 21:45;38.448
05.01.2022 22:00;31.757
05.01.2022 22:15;36.278
05.01.2022 22:30;30.693
05.01.2022 22:45;32.938
05.01.2022 23:00;28.691
05.01.2022 23:15;30.998
05.01.2022 23:30;28.435
05.01.2022 23:45;27.690
06.01.2022 00:00;27.039
06.01.2022 00:15;26.492
06.01.2022 00:30;25.803
06.01.2022 00:45;25.573
06.01.2022 01:00;25.505
06.01.2022 01:15;25.098
06.01.2022 01:30;24.510
06.01.2022 01:45;23.447
06.01.2022 02:00;22.545
06.01.2022 02:15;23.275
06.01.2022 02:30;24.143
06.01.2022 02:45;23.402
06.01.2022 03:00;22.652
06.01.2022 03:15;22.538
06.01.2022 03:30;22.874
06.01.2022 03:45;22.957
06.01.2022 04:00;23.478
06.01.2022 04:15;22.278
06.01.2022 04:30;23.937
06.01.2022 04:45;24.213
06.01.2022 05:00;25.014
06.01.2022 05:15;26.069
06.01.2022 05:30;26.508
06.01.2022 05:45;28.289
06.01.2022 06:00;30.995
06.01.2022 06:15;31.687
06.01.2022 06:30;33.129
06.01.2022 06:45;34.285
06.01.2022 07:00;35.843
06.01.2022 07:15;36.895
06.01.2022 07:30;38.626
06.01.2022 07:45;39.973
06.01.2022 08:00;42.184
06.01.2022 08:15;42.656
06.01.2022 08:30;42.900
06.01.2022 08:45;43.972
06.01.2022 09:00;43.617
06.01.2022 09:15;43.808
06.01.2022 09:30;44.247
06.01.2022 09:45;44.707
06.01.2022 10:00;45.104
06.01.2022 10:15;45.588
06.01.2022 10:30;45.774
06.01.2022 10:45;45.691
06.01.2022 11:00;45.855
06.01.2022 11:15;45.868
06.01.2022 11:30;45.757
06.01.2022 11:45;46.036
06.01.2022 12:00;46.270
06.01.2022 12:15;45.973
06.01.2022 12:30;46.096
06.01.2022 12:45;45.999
06.01.2022 13:00;45.545
06.01.2022 13:15;45.863
06.01.2022 13:30;46.003
06.01.2022 13:45;45.752
06.01.2022 14:00;45.300
06.01.2022 14:15;45.723
06.01.2022 14:30;46.085
06.01.2022 14:45;46.648
06.01.2022 15:00;45.357
06.01.2022 15:15;45.444
06.01.2022 15:30;45.426
06.01.2022 15:45;45.808
06.01.2022 16:00;45.432
06.01.2022 16:15;46.426
06.01.2022 16:30;46.928
06.01.2022 16:45;49.291
06.01.2022 17:00;49.445
06.01.2022 17:15;50.800
06.01.2022 17:30;51.572
06.01.2022 17:45;50.507
06.01.2022 18:00;50.235
06.01.2022 18:15;49.703
06.01.2022 18:30;50.194
06.01.2022 18:45;49.129
06.01.2022 19:00;47.028
06.01.2022 19:15;46.985
06.01.2022 19:30;45.705
06.01.2022 19:45;44.337
06.01.2022 20:00;43.348
06.01.2022 20:15;42.166
06.01.2022 20:30;41.494
06.01.2022 20:45;40.128
06.01.2022 21:00;39.275
06.01.2022 21:15;37.995
06.01.2022 21:30;36.520
06.01.2022 21:45;35.720
06.01.2022 22:00;35.401
06.01.2022 22:15;33.152
06.01.2022 22:30;32.944
06.01.2022 22:45;31.284
06.01.2022 23:00;29.999
06.01.2022 23:15;29.505
06.01.2022 23:30;28.601
06.01.2022 23:45;28.275
07.01.2022 00:00;27.168
07.01.2022 00:15;26.325
07.01.2022 00:30;25.160
07.01.2022 00:45;24.827
07.01.2022 01:00;24.935
07.01.2022 01:15;25.210
07.01.2022 01:30;23.746
07.01.2022 01:45;23.379
07.01.2022 02:00;23.224
07.01.2022 02:15;23.218
07.01.2022 02:30;23.299
07.01.2022 02:45;22.503
07.01.2022 03:00;22.895
07.01.2022 03:15;22.297
07.01.2022 03:30;22.831
07.01.2022 03:45;22.245
07.01.2022 04:00;23.818
07.01.2022 04:15;24.031
07.01.2022 04:30;23.608
07.01.2022 04:45;24.392
07.01.2022 05:00;26.013
07.01.2022 05:15;25.899
07.01.2022 05:30;26.742
07.01.2022 05:45;28.436
07.01.2022 06:00;30.480
07.01.2022 06:15;31.729
07.01.2022 06:30;33.245
07.01.2022 06:45;34.651
07.01.2022 07:00;36.460
07.01.2022 07:15;37.707
07.01.2022 07:30;39.463
07.01.2022 07:45;40.245
07.01.2022 08:00;42.001
07.01.2022 08:15;42.638
07.01.2022 08:30;43.319
07.01.2022 08:45;44.171
07.01.2022 09:00;45.100
07.01.2022 09:15;45.615
07.01.2022 09:30;45.938
07.01.2022 09:45;46.994
07.01.2022 10:00;46.324
07.01.2022 10:15;47.956
07.01.2022 10:30;48.265
07.01.2022 10:45;48.177
07.01.2022 11:00;48.241
07.01.2022 11:15;48.243
07.01.2022 11:30;48.897
07.01.2022 11:45;49.005
07.01.2022 12:00;49.110
07.01.2022 12:15;48.690
07.01.2022 12:30;49.633
07.01.2022 12:45;48.911
07.01.2022 13:00;48.505
07.01.2022 13:15;48.968
07.01.2022 13:30;48.450
07.01.2022 13:45;47.157
07.01.2022 14:00;45.654
07.01.2022 14:15;46.722
07.01.2022 14:30;44.980
07.01.2022 14:45;44.692
07.01.2022 15:00;46.898
07.01.2022 15:15;45.913
07.01.2022 15:30;46.184
07.01.2022 15:45;46.250
07.01.2022 16:00;47.040
07.01.2022 16:15;47.478
07.01.2022 16:30;47.350
07.01.2022 16:45;48.578
07.01.2022 17:00;48.741
07.01.2022 17:15;49.092
07.01.2022 17:30;49.335
07.01.2022 17:45;48.920
07.01.2022 18:00;49.587
07.01.2022 18:15;48.679
07.01.2022 18:30;48.219
07.01.2022 18:45;48.075
07.01.2022 19:00;47.163
07.01.2022 19:15;46.172
07.01.2022 19:30;44.973
07.01.2022 19:45;43.961
07.01.2022 20:00;43.329
07.01.2022 20:15;41.869
07.01.2022 20:30;40.230
07.01.2022 20:45;39.592
07.01.2022 21:00;38.468
07.01.2022 21:15;37.427
07.01.2022 21:30;36.733
07.01.2022 21:45;35.651
07.01.2022 22:00;35.200
07.01.2022 22:15;34.381
07.01.2022 22:30;33.035
07.01.2022 22:45;32.247
07.01.2022 23:00;30.151
07.01.2022 23:15;30.358
07.01.2022 23:30;29.446
07.01.2022 23:45;28.935
08.01.2022 00:00;28.323
08.01.2022 00:15;27.516
08.01.2022 00:30;26.090
08.01.2022 00:45;26.157
08.01.2022 01:00;25.849
08.01.2022 01:15;24.683
08.01.2022 01:30;25.645
08.01.2022 01:45;22.434
08.01.2022 02:00;24.332
08.01.2022 02:15;23.685
08.01.2022 02:30;23.749
08.01.2022 02:45;23.190
08.01.2022 03:00;22.484
08.01.2022 03:15;23.049
08.01.2022 03:30;23.036
08.01.2022 03:45;22.504
08.01.2022 04:00;23.068
08.01.2022 04:15;23.088
08.01.2022 04:30;22.880
08.01.2022 04:45;23.502
08.01.2022 05:00;23.858
08.01.2022 05:15;24.724
08.01.2022 05:30;24.451
08.01.2022 05:45;24.402
08.01.2022 06:00;26.745
08.01.2022 06:15;27.837
08.01.2022 06:30;28.047
08.01.2022 06:45;28.423
08.01.2022 07:00;29.612
08.01.2022 07:15;30.848
08.01.2022 07:30;32.012
08.01.2022 07:45;33.027
08.01.2022 08:00;33.818
08.01.2022 08:15;34.211
08.01.2022 08:30;35.146
08.01.2022 08:45;36.050
08.01.2022 09:00;36.048
08.01.2022 09:15;38.784
08.01.2022 09:30;38.548
08.01.2022 09:45;39.415
08.01.2022 10:00;39.337
08.01.2022 10:15;40.473
08.01.2022 10:30;40.612
08.01.2022 10:45;40.726
08.01.2022 11:00;39.612
08.01.2022 11:15;41.466
08.01.2022 11:30;42.735
08.01.2022 11:45;42.456
08.01.2022 12:00;42.283
08.01.2022 12:15;43.000
08.01.2022 12:30;43.471
08.01.2022 12:45;43.578
08.01.2022 13:00;41.840
08.01.2022 13:15;42.740
08.01.2022 13:30;41.992
08.01.2022 13:45;41.644
08.01.2022 14:00;41.660
08.01.2022 14:15;41.024
08.01.2022 14:30;41.850
08.01.2022 14:45;41.972
08.01.2022 15:00;39.701
08.01.2022 15:15;42.292
08.01.2022 15:30;44.703
08.01.2022 15:45;42.699
08.01.2022 16:00;43.978
08.01.2022 16:15;44.891
08.01.2022 16:30;46.071
08.01.2022 16:45;46.904
08.01.2022 17:00;47.374
08.01.2022 17:15;47.382
08.01.2022 17:30;48.231
08.01.2022 17:45;47.498
08.01.2022 18:00;47.678
08.01.2022 18:15;48.176
08.01.2022 18:30;46.741
08.01.2022 18:45;46.742
08.01.2022 19:00;45.232
08.01.2022 19:15;45.204
08.01.2022 19:30;43.983
08.01.2022 19:45;43.357
08.01.2022 20:00;42.000
08.01.2022 20:15;40.988
08.01.2022 20:30;39.864
08.01.2022 20:45;40.090
08.01.2022 21:00;38.218
08.01.2022 21:15;37.170
08.01.2022 21:30;36.055
08.01.2022 21:45;37.279
08.01.2022 22:00;34.521
08.01.2022 22:15;34.019
08.01.2022 22:30;33.374
08.01.2022 22:45;32.040
08.01.2022 23:00;31.311
08.01.2022 23:15;31.066
08.01.2022 23:30;29.441
08.01.2022 23:45;28.848
09.01.2022 00:00;28.121
09.01.2022 00:15;27.374
09.01.2022 00:30;26.151
09.01.2022 00:45;26.323
09.01.2022 01:00;24.934
09.01.2022 01:15;24.834
09.01.2022 01:30;24.630
09.01.2022 01:45;23.854
09.01.2022 02:00;23.336
09.01.2022 02:15;23.366
09.01.2022 02:30;23.691
09.01.2022 02:45;22.466
09.01.2022 03:00;22.858
09.01.2022 03:15;22.920
09.01.2022 03:30;21.826
09.01.2022 03:45;22.817
09.01.2022 04:00;21.721
09.01.2022 04:15;22.381
09.01.2022 04:30;21.788
09.01.2022 04:45;22.500
09.01.2022 05:00;22.756
09.01.2022 05:15;23.361
09.01.2022 05:30;22.497
09.01.2022 05:45;23.457
09.01.2022 06:00;23.523
09.01.2022 06:15;24.437
09.01.2022 06:30;24.327
09.01.2022 06:45;24.808
09.01.2022 07:00;25.586
09.01.2022 07:15;25.427
09.01.2022 07:30;26.696
09.01.2022 07:45;27.307
09.01.2022 08:00;27.871
09.01.2022 08:15;29.112
09.01.2022 08:30;30.575
09.01.2022 08:45;30.507
09.01.2022 09:00;31.778
09.01.2022 09:15;32.479
09.01.2022 09:30;34.655
09.01.2022 09:45;34.227
09.01.2022 10:00;34.140
09.01.2022 10:15;39.261
09.01.2022 10:30;37.903
09.01.2022 10:45;38.687
09.01.2022 11:00;40.700
09.01.2022 11:15;42.439
09.01.2022 11:30;42.609
09.01.2022 11:45;41.605
09.01.2022 12:00;43.193
09.01.2022 12:15;43.592
09.01.2022 12:30;43.205
09.01.2022 12:45;42.977
09.01.2022 13:00;42.314
09.01.2022 13:15;42.432
09.01.2022 13:30;41.989
09.01.2022 13:45;40.751
09.01.2022 14:00;40.842
09.01.2022 14:15;40.576
09.01.2022 14:30;39.231
09.01.2022 14:45;39.163
09.01.2022 15:00;39.810
09.01.2022 15:15;40.528
09.01.2022 15:30;40.830
09.01.2022 15:45;39.593
09.01.2022 16:00;39.982
09.01.2022 16:15;40.383
09.01.2022 16:30;40.694
09.01.2022 16:45;42.577
09.01.2022 17:00;43.499
09.01.2022 17:15;43.842
09.01.2022 17:30;44.415
09.01.2022 17:45;44.673
09.01.2022 18:00;44.290
09.01.2022 18:15;44.891
09.01.2022 18:30;43.403
09.01.2022 18:45;43.768
09.01.2022 19:00;42.578
09.01.2022 19:15;42.061
09.01.2022 19:30;40.679
09.01.2022 19:45;39.450
09.01.2022 20:00;39.949
09.01.2022 20:15;38.570
09.01.2022 20:30;37.584
09.01.2022 20:45;36.730
09.01.2022 21:00;36.040
09.01.2022 21:15;35.123
09.01.2022 21:30;34.065
09.01.2022 21:45;33.693
09.01.2022 22:00;33.177
09.01.2022 22:15;32.836
09.01.2022 22:30;31.277
09.01.2022 22:45;29.393
09.01.2022 23:00;28.654
09.01.2022 23:15;27.180
09.01.2022 23:30;26.592
09.01.2022 23:45;26.175
10.01.2022 00:00;25.769
10.01.2022 00:15;26.292
10.01.2022 00:30;24.363
10.01.2022 00:45;24.627
10.01.2022 01:00;23.143
10.01.2022 01:15;24.511
10.01.2022 01:30;22.941
10.01.2022 01:45;23.218
10.01.2022 02:00;23.386
10.01.2022 02:15;22.801
10.01.2022 02:30;21.614
10.01.2022 02:45;21.977
10.01.2022 03:00;21.041
10.01.2022 03:15;22.766
10.01.2022 03:30;22.038
10.01.2022 03:45;22.199
10.01.2022 04:00;22.009
10.01.2022 04:15;22.970
10.01.2022 04:30;23.642
10.01.2022 04:45;24.346
10.01.2022 05:00;25.750
10.01.2022 05:15;25.730
10.01.2022 05:30;27.419
10.01.2022 05:45;28.240
10.01.2022 06:00;30.691
10.01.2022 06:15;33.060
10.01.2022 06:30;33.714
10.01.2022 06:45;35.772
10.01.2022 07:00;39.646
10.01.2022 07:15;39.787
10.01.2022 07:30;40.449
10.01.2022 07:45;42.760
10.01.2022 08:00;45.289
10.01.2022 08:15;45.506
10.01.2022 08:30;45.584
10.01.2022 08:45;45.618
10.01.2022 09:00;45.683
10.01.2022 09:15;45.738
10.01.2022 09:30;46.353
10.01.2022 09:45;46.310
10.01.2022 10:00;46.143
10.01.2022 10:15;46.163
10.01.2022 10:30;46.818
10.01.2022 10:45;47.051
10.01.2022 11:00;47.766
10.01.2022 11:15;47.812
10.01.2022 11:30;48.002
10.01.2022 11:45;48.541
10.01.2022 12:00;48.920
10.01.2022 12:15;49.536
10.01.2022 12:30;49.498
10.01.2022 12:45;49.339
10.01.2022 13:00;48.669
10.01.2022 13:15;48.256
10.01.2022 13:30;48.248
10.01.2022 13:45;48.283
10.01.2022 14:00;48.637
10.01.2022 14:15;48.304
10.01.2022 14:30;47.885
10.01.2022 14:45;47.728
10.01.2022 15:00;47.926
10.01.2022 15:15;48.221
10.01.2022 15:30;47.856
10.01.2022 15:45;47.630
10.01.2022 16:00;48.227
10.01.2022 16:15;48.850
10.01.2022 16:30;49.444
10.01.2022 16:45;49.817
10.01.2022 17:00;49.893
10.01.2022 17:15;49.985
10.01.2022 17:30;50.268
10.01.2022 17:45;50.280
10.01.2022 18:00;49.407
10.01.2022 18:15;49.145
10.01.2022 18:30;48.650
10.01.2022 18:45;48.146
10.01.2022 19:00;46.722
10.01.2022 19:15;45.795
10.01.2022 19:30;44.350
10.01.2022 19:45;44.307
10.01.2022 20:00;42.494
10.01.2022 20:15;41.746
10.01.2022 20:30;40.307
10.01.2022 20:45;39.081
10.01.2022 21:00;38.083
10.01.2022 21:15;36.662
10.01.2022 21:30;35.726
10.01.2022 21:45;34.619